SCP
0 0 0 0 0 0 0 0 0 0 0 0 0 0 0 0 0 0 0 1 1 1 1 1 1 2 2 2 2 2 2 2 2 2 2 2 2 2
0 0 0 0 0 0 0 0 0 0 0 0 0 0 0 0 0 0 0 1 1 1 1 1 1 1 2 2 2 2 2 2 2 2 2 2 2 2
0 0 0 0 0 0 0 0 0 0 0 0 0 0 0 0 0 0 0 1 1 1 1 1 1 1 1 1 1 1 1 2 2 2 2 2 3 2
0 0 0 0 0 0 0 0 0 0 0 0 0 0 0 0 0 0 0 0 1 1 1 1 1 0 1 1 1 1 1 1 1 1 2 2 2 2
0 0 0 0 0 0 0 0 0 0 0 0 0 0 0 0 0 0 0 0 1 1 1 1 1 0 0 0 0 0 1 1 1 1 1 2 2 2
0 0 0 0 0 0 0 0 0 0 0 0 0 0 0 0 0 0 0 1 1 1 1 1 0 0 0 0 0 0 0 0 1 1 1 1 1 1
0 0 0 0 0 0 0 0 0 0 0 0 0 0 0 0 0 0 0 1 1 1 1 1 0 0 0 0 0 0 0 0 0 1 1 1 1 1
0 0 0 0 0 0 0 0 0 0 0 0 0 0 0 0 0 0 0 1 0 0 0 0 0 0 0 0 0 0 0 0 0 0 0 0 0 0
0 0 0 0 0 0 0 0 0 0 0 0 0 0 0 0 0 0 0 0 0 0 0 0 0 0 0 0 0 0 0 0 0 0 0 0 0 0
0 0 0 0 0 0 0 0 0 0 0 0 0 0 0 0 0 0 0 0 0 0 0 0 0 0 0 0 0 0 0 0 0 0 0 0 0 0
0 0 0 0 0 0 0 0 0 0 0 0 0 0 0 0 0 0 0 0 0 0 0 0 0 0 0 0 0 0 0 0 0 0 0 0 0 0
0 0 0 0 0 0 0 0 0 0 0 0 0 0 0 0 0 0 0 0 0 0 0 0 0 0 0 0 0 0 0 0 0 0 0 0 0 0
0 0 0 0 0 0 0 0 0 0 0 0 0 0 0 0 0 0 0 0 0 0 0 0 0 0 0 0 0 0 0 0 0 0 0 0 0 0
0 0 0 0 0 0 0 0 0 0 0 0 0 0 0 0 0 0 0 0 0 0 0 0 0 0 0 0 0 0 0 0 0 0 0 0 0 0
0 0 0 0 0 0 0 0 0 0 0 0 0 0 0 0 0 0 0 0 0 0 0 0 0 0 0 0 0 0 0 0 0 0 0 0 0 0
0 0 0 0 0 0 0 0 0 0 0 0 0 0 0 0 0 0 0 0 0 0 0 0 0 0 0 0 0 0 0 0 0 0 0 0 0 0
0 0 0 0 0 0 0 0 0 0 0 0 0 0 0 0 0 0 0 0 0 0 0 0 0 0 0 0 0 0 0 0 0 0 0 0 0 0
-0 -0 -0 0 0 0 0 0 0 0 0 0 0 0 0 0 0 0 0 0 0 0 0 0 0 0 0 0 0 0 0 0 0 0 0 0 0 0
0 0 -0 0 0 0 0 0 0 0 0 0 0 0 0 0 0 0 0 0 0 0 0 0 0 0 0 0 0 0 0 0 0 0 0 0 0 0
0 0 0 0 0 0 0 0 0 0 0 0 0 0 0 0 0 0 0 0 0 0 0 0 0 0 0 0 0 0 0 0 0 0 0 0 0 0
0 0 0 0 0 0 0 0 0 0 0 0 0 0 0 0 0 0 0 0 0 0 0 0 0 0 0 0 0 0 0 0 0 0 0 0 0 0
0 0 0 0 0 0 0 0 0 0 0 0 0 0 0 0 0 0 0 0 0 0 0 0 0 0 0 0 0 0 0 0 0 0 0 0 0 0
0 0 0 0 0 0 -0 0 0 0 0 0 0 0 0 0 0 0 0 0 0 0 0 0 0 0 0 0 0 0 0 0 0 0 0 0 0 0
Wind_Speed
11 11 9 7 8 8 9 9 10 12 12 6 4 4 5 6 10 10 10 11 12 13 14 14 15 16 17 18 19 22 24 23 22 21 21 20 20 19
10 11 10 8 8 8 8 9 9 10 12 7 6 8 10 10 15 11 12 15 11 11 12 13 13 14 14 16 17 18 20 21 22 22 23 22 20 19
12 11 11 11 8 8 8 9 9 9 12 11 8 8 9 9 9 9 10 8 5 8 10 12 12 12 12 13 14 16 19 21 22 22 22 22 21 21
12 11 10 9 10 9 8 8 8 8 10 12 8 7 9 8 7 9 10 8 5 6 9 10 11 11 11 12 12 14 16 20 23 24 24 23 22 22
9 8 9 9 10 8 8 7 7 8 7 9 8 5 5 5 6 8 9 6 5 4 6 8 10 12 11 12 12 13 15 19 22 24 25 24 23 24
6 7 8 9 10 10 8 9 9 8 8 7 6 5 4 4 3 5 6 4 3 1 3 4 7 11 12 13 13 13 14 16 20 22 22 24 25 26
7 7 9 14 19 15 11 10 10 9 8 7 6 4 3 2 2 3 5 4 3 1 2 2 3 4 6 10 12 13 14 16 17 18 21 25 26 26
10 9 10 11 17 21 22 21 18 13 11 9 7 6 5 4 3 2 3 4 3 2 2 2 2 3 4 5 10 14 15 16 18 20 23 25 26 26
11 10 11 13 13 9 16 19 18 22 20 12 9 9 8 7 7 4 3 3 2 1 2 2 2 2 2 4 13 16 17 18 22 25 27 27 27 28
12 12 11 12 14 14 11 11 10 12 16 11 9 10 10 9 7 6 5 4 2 1 2 3 2 2 2 3 12 17 20 24 27 30 32 32 32 31
12 14 14 12 24 24 15 13 12 11 16 21 20 18 19 19 13 5 3 3 2 1 1 3 3 4 4 4 9 21 26 29 32 34 35 35 34 31
9 12 19 21 25 25 14 13 14 13 13 14 15 16 13 14 17 9 5 3 1 2 0 3 4 5 5 5 6 11 18 27 32 34 34 33 30 18
9 9 11 24 25 25 20 14 18 15 11 12 10 10 10 10 10 9 7 4 2 1 1 2 4 4 7 6 6 7 11 14 16 21 26 28 26 19
9 8 11 23 23 24 19 22 24 18 10 10 10 11 11 11 11 11 10 7 3 1 1 1 4 6 10 10 7 7 10 10 11 12 12 21 21 22
8 17 20 22 20 16 22 25 19 12 11 11 11 11 10 11 10 9 9 7 6 7 6 2 4 8 10 12 11 9 9 9 8 11 11 10 10 11
7 12 17 19 16 17 17 14 11 12 11 10 10 10 10 10 10 10 9 8 6 8 11 11 7 9 10 12 15 15 10 8 8 10 11 11 9 9
6 6 7 8 10 10 10 10 10 11 11 11 11 11 11 11 11 10 10 9 8 7 8 10 14 16 15 12 13 12 13 13 11 10 12 12 9 8
8 5 6 7 8 9 9 9 9 10 10 10 10 10 11 11 11 10 10 10 10 9 8 5 8 13 13 16 16 11 12 13 11 9 11 12 9 6
4 3 4 5 5 6 6 6 7 7 8 8 9 9 10 10 10 10 11 10 10 10 9 8 5 8 15 11 11 14 10 12 12 10 8 7 8 6
2 2 3 3 4 4 4 4 5 6 6 7 7 8 9 9 9 10 11 12 10 10 11 12 11 9 10 11 8 8 14 10 10 11 9 9 8 8
3 3 3 3 3 3 3 4 4 4 5 5 6 7 7 8 9 9 9 15 13 11 12 11 11 13 9 10 13 10 11 14 11 8 8 7 5 4
4 3 3 3 3 2 3 3 3 4 5 4 5 5 6 6 7 9 9 9 9 10 11 10 10 11 11 13 14 12 10 9 12 17 13 8 4 5
5 4 4 3 3 2 2 2 3 3 3 3 4 4 5 5 5 6 7 8 8 9 9 10 10 11 12 12 12 11 12 9 7 8 8 11 12 11
Wind_Direction
302 300 297 295 294 291 287 281 284 292 296 293 291 306 331 324 325 328 315 279 233 211 203 199 200 201 201 202 200 196 191 186 182 179 181 183 181 178
300 299 298 295 293 288 285 281 274 276 279 285 294 308 314 310 311 321 312 303 252 210 195 191 192 195 196 197 198 197 193 186 180 179 181 181 177 173
303 302 302 299 295 291 287 280 275 274 277 284 282 287 288 290 300 306 305 299 270 215 190 182 184 187 189 191 193 192 190 184 179 179 183 182 177 170
301 304 308 311 309 302 296 290 285 278 279 284 286 280 275 279 290 297 302 295 272 221 188 179 180 184 186 189 190 189 186 181 178 179 184 185 178 166
303 314 319 327 330 327 323 323 315 304 291 284 284 277 271 272 279 288 289 284 269 224 191 183 184 186 188 190 190 188 186 183 180 183 182 179 171 163
323 331 339 347 349 343 345 349 338 327 316 300 285 277 268 254 242 266 280 277 266 229 177 172 184 189 191 192 192 188 186 186 185 183 177 168 161 158
359 356 359 14 10 7 7 5 356 351 347 336 316 296 285 268 230 235 257 265 260 212 163 165 167 176 187 195 192 188 185 184 182 175 166 159 155 152
12 1 3 13 16 10 10 13 11 7 4 356 343 333 332 330 316 274 247 236 226 196 148 154 154 170 178 187 186 182 180 175 167 159 153 149 145 142
11 7 10 7 23 9 5 10 8 9 12 5 353 344 337 338 328 308 274 246 223 180 131 139 125 146 144 176 174 171 167 159 151 144 138 134 130 128
9 5 8 1 15 21 3 3 5 3 2 2 355 347 344 342 324 295 291 289 284 357 105 128 116 100 85 124 157 154 148 142 137 133 129 125 122 120
7 6 11 9 12 20 11 2 4 1 359 1 3 2 360 356 359 332 288 236 191 131 50 114 114 88 64 72 125 133 132 131 130 128 125 123 121 117
6 3 7 16 13 18 15 4 6 1 353 352 356 356 356 353 1 1 338 302 200 142 148 117 121 111 82 45 87 112 119 122 123 123 122 122 120 116
8 4 3 13 14 16 18 12 10 8 354 353 352 352 354 355 352 348 340 312 287 160 193 123 118 103 110 103 65 82 106 113 113 115 115 116 117 118
3 2 6 16 15 14 16 14 13 11 1 359 359 358 356 354 347 341 336 332 344 24 352 120 131 142 130 122 107 87 82 89 103 107 107 110 109 112
6 15 17 19 15 10 12 16 13 7 5 3 360 355 349 346 346 346 346 346 24 37 27 40 127 134 130 129 124 120 99 77 85 100 101 103 106 108
11 7 15 15 17 12 12 11 9 9 10 2 355 350 349 355 2 1 0 357 28 37 33 43 66 106 115 118 126 125 116 112 105 99 99 91 84 83
13 4 6 7 9 8 8 9 8 8 8 4 1 358 359 2 7 8 13 21 40 42 49 57 66 69 67 92 113 115 115 112 114 114 105 95 80 85
19 2 4 5 6 5 3 3 5 8 6 5 6 3 2 4 9 13 20 28 38 40 39 49 103 102 84 52 44 100 108 110 108 103 108 108 98 82
14 342 342 345 346 349 350 351 354 354 358 4 8 6 5 7 12 18 22 27 34 38 35 28 42 116 112 95 39 39 93 109 108 98 90 101 112 113
323 314 318 325 331 336 340 343 344 350 357 3 6 9 11 14 18 21 25 30 33 40 44 42 43 62 96 106 100 60 59 86 103 104 102 97 94 99
295 296 297 306 315 325 331 336 341 346 353 355 5 9 12 19 25 25 29 34 40 41 48 45 45 62 80 90 91 81 63 67 82 98 111 109 105 97
273 274 279 285 295 306 316 330 341 347 353 358 359 5 10 20 26 30 33 36 39 43 50 50 50 59 69 87 95 94 86 75 77 79 76 88 119 135
267 261 259 265 270 271 277 304 329 338 347 353 358 3 9 19 23 30 35 41 44 47 52 56 59 65 73 82 91 93 91 87 84 77 63 66 81 92